GFSNIL_con_mucape_015.txt.gz
CAPE
1014 941 894 1017 881 803 978 1181 1312 1421 1250 1163 1131 875 382 213 0 0 19 3 0 0
1070 1059 1060 1085 1032 900 874 1230 1372 1308 1421 1347 1293 930 605 247 8 5 0 3 1 0
1114 1135 1117 1056 1072 946 873 1059 1260 1293 1459 1351 1230 877 683 233 3 0 2 0 0 0
1162 1140 1119 1131 1067 1026 1076 1148 1105 1269 1527 1141 1157 1101 822 294 136 0 0 6 0 0
994 1149 1259 1165 1174 1098 1239 1373 1451 1376 1274 1123 1140 1330 922 518 486 133 0 3 18 1
1217 1150 1279 1353 1261 1208 1320 1420 1310 1320 1237 1158 1285 1304 1008 750 687 565 153 11 0 21
1462 1506 1295 1308 1370 1380 1452 1554 1527 1327 1357 1443 1389 1240 1059 986 908 921 703 339 139 0
1620 1694 1680 1554 1425 1354 1392 1437 1448 1502 1459 1607 1636 1430 1325 1247 1221 1037 932 779 446 96
1868 1947 1951 1907 1765 1636 1525 1567 1565 1488 1385 1351 1430 1628 1655 1530 1365 1031 943 800 559 252
1946 2133 2178 2119 2047 1929 1804 1695 1646 1602 1472 1443 1562 1680 1564 1539 1353 930 1005 915 1016 688
2230 2194 2297 2358 2298 2174 2042 1960 1865 1792 1681 1584 1655 1754 1729 1922 395 271 742 1095 1155 361
2442 2403 2468 2483 2527 2454 2302 2207 2161 1990 2032 2170 2231 2390 2566 2390 288 1257 1528 1097 755 469
2607 2551 2534 2577 2522 2567 2574 2371 2309 2431 2385 2433 2473 2510 2625 967 959 2094 1527 824 418 355
2645 2734 2635 2555 2542 2642 2673 2641 2479 2605 2708 2837 2874 2855 2386 836 2063 1605 868 358 261 201

GFSNIL_con_mucape_018.txt.gz
CAPE
611 411 502 620 536 569 541 769 934 1001 1174 1198 1204 968 859 657 142 0 0 0 0 0
607 517 559 654 664 724 526 690 827 951 1119 1250 1281 1105 1005 694 218 64 0 0 0 0
682 667 634 702 799 772 826 831 848 1006 1181 1274 1270 1215 1121 829 424 204 0 0 0 0
862 829 776 762 837 857 936 925 882 953 1171 1231 1239 1352 1259 1026 625 314 0 0 0 0
988 962 904 859 842 873 975 978 963 873 1071 1133 1176 1389 1271 1078 807 495 162 0 0 0
1043 1017 972 901 879 921 954 967 966 886 982 1091 1086 1422 1279 1122 1088 807 495 418 121 5
945 1021 1099 1056 968 929 948 1004 1021 1058 1209 1250 1426 1353 1345 1115 1310 1116 737 685 549 276
992 962 1023 1222 1172 1048 1015 1039 1122 1080 1276 1381 1370 1370 1288 1283 1346 1295 974 924 835 606
1193 1245 1205 1144 1244 1255 1189 1196 1186 1105 1168 1424 1353 1322 1453 1537 1519 1258 1295 1331 1142 871
1386 1454 1525 1426 1297 1253 1243 1268 1320 1291 1215 1311 1469 1425 1494 1693 1759 1527 1601 1612 1488 1176
1620 1647 1658 1709 1599 1488 1360 1304 1363 1424 1367 1320 1379 1439 1505 1519 1593 1571 1704 1700 1535 1064
1755 1825 1848 1915 1898 1802 1647 1475 1483 1512 1587 1516 1486 1587 1513 1441 1509 1784 1816 1775 743 1140
1906 1902 1926 2117 2107 2035 1926 1751 1737 1562 1722 1759 1727 1589 1606 1515 1710 1827 2007 2377 1436 1320
2083 2175 2097 2237 2337 2358 2295 2115 1926 1757 1786 1920 1970 1837 1721 1760 1839 2148 2445 929 1682 1270

GFSNIL_con_mucape_021.txt.gz
CAPE
2244 1790 1941 2123 1479 1408 1411 1566 1971 2287 2290 2248 2133 1981 1553 1192 898 531 425 345 242 172
2094 2030 1928 2187 2214 1532 2075 1541 1860 2146 2300 2317 2194 2002 1625 1237 936 479 416 289 326 208
1929 2010 2058 2182 2211 2130 2058 1880 1725 1982 2208 2316 2219 2020 1735 1435 1055 586 319 176 306 219
1934 1945 2030 2096 2240 2287 2214 2196 2149 2158 2137 2208 2216 2027 1825 1683 1244 758 588 279 303 323
2119 2103 2089 2135 2211 2342 2374 2153 2644 2559 2228 2236 2277 2083 1837 1756 1347 988 790 642 342 235
2201 2245 2209 2209 2286 2374 2404 2412 1954 2515 2629 2220 2170 2109 1874 1921 1732 1259 1087 832 528 409
2253 2276 2294 2330 2401 2406 2454 2436 2491 2566 2582 2400 2097 2064 1911 1845 1897 1578 1250 1073 643 406
2327 2394 2447 2453 2452 2448 2486 2382 2461 2607 2616 2444 2172 1909 2137 1868 1866 1826 1430 1156 882 717
2312 2512 2518 2554 2567 2541 2497 2482 2514 2507 2586 2571 2050 1468 1213 1688 2102 1919 1765 1593 1077 1009
2280 2447 2512 2537 2602 2553 2534 2494 2547 2510 2576 2624 2621 1370 1207 1341 2033 1903 1978 1802 1461 1146
2387 2423 2497 2462 2555 2678 2644 2576 2655 2554 2582 2679 2599 1517 1233 1240 1590 2117 2149 1820 1712 1662
2442 2456 2578 2615 2592 2623 2708 2768 2692 2698 2684 2627 2707 1531 1317 1280 1438 2167 2126 1822 1670 1748
2652 2708 2754 2807 2891 2820 2738 2723 2593 2771 2774 2233 2710 1738 1326 1269 1665 2089 1871 1711 1488 1507
2867 2910 2984 3082 3100 3120 3081 2828 2875 2856 2813 2817 2341 2753 1577 1472 2003 2033 1352 1381 1364 1649

GFSNIL_con_mucape_024.txt.gz
CAPE
3690 2379 2392 2902 2187 2017 1591 1683 1736 2241 2513 2598 2564 2786 2802 2628 2227 1898 1593 958 309 20
3675 3483 2524 3390 3203 2314 3012 1802 1926 2085 2561 2540 2654 2761 2866 2599 2447 1946 1791 1186 672 203
3199 3653 3620 3761 3583 3526 2925 2876 2216 2401 2431 2462 2628 2810 2958 2553 2511 2315 1694 1039 679 549
3078 3017 3152 3246 3779 3880 3181 3529 2955 2885 2508 2371 2601 2847 3091 3146 2385 2498 2140 1309 908 831
3562 3387 3061 3535 3561 3894 3768 3678 3624 3142 2900 2598 2424 3039 2996 3021 2272 2479 2308 1887 1337 1005
3091 3176 3444 3747 3489 3773 3924 3946 2880 3444 3800 3410 2916 3103 2944 3178 2931 2559 2501 2202 1862 1419
3525 3497 3551 3727 3761 3828 3998 4041 3883 3943 4100 3680 3128 2940 2911 2908 3019 2943 2628 2555 2222 1742
3581 3817 3829 3836 3937 3869 4042 3965 4086 4048 4112 3946 3046 2451 3426 3443 3007 3324 3165 2996 2558 2157
3729 3999 3985 4071 4112 4102 4058 4102 4166 3980 4092 4098 3067 1901 1729 2625 3508 3680 3787 3482 2988 2427
3859 3969 4129 4059 4184 4147 4154 4156 4213 4167 4155 4254 4129 1960 1581 1655 3086 3583 3553 3739 3204 2651
3560 3827 3815 4179 4179 4206 4134 4016 4130 4131 4180 4251 4113 2602 1743 1484 2679 3523 3536 3122 3093 3158
3482 3524 3769 4153 4213 4189 4073 4095 4082 4089 4269 4274 4165 2663 2224 1612 2456 2666 3812 3386 3195 3291
3826 3919 3879 4046 4280 4297 4238 3987 3341 3824 4109 3590 4165 3022 2343 1997 2174 2590 2668 3550 3896 2207
3898 4107 4100 4291 4390 4181 4078 3638 4119 4088 4134 4306 3767 3995 2571 2134 2716 2548 2544 2301 2638 2919

GFSNIL_con_mucape_027.txt.gz
CAPE
4159 2668 2298 2899 1785 1554 1263 1324 3007 3842 3557 3435 3392 3159 3760 2811 2499 2958 2008 1565 1431 71
4072 3798 2812 3075 3540 2602 2878 1622 3193 3551 3592 3485 3566 3817 3944 2464 3348 3149 2719 2290 1847 502
4203 4227 3912 4062 4191 3164 3371 3768 3496 3207 3314 3455 3732 3924 4201 3067 3456 3724 2565 1716 2607 1782
3963 3977 4178 4005 4245 4148 4237 4479 3894 4220 3691 3721 3817 4065 4275 3806 3485 3751 3568 3003 2842 2248
4009 3926 4012 4114 4002 4316 4344 4300 4581 4332 4289 4130 3814 4017 4215 3946 2684 3727 3415 2977 2882 2053
4056 4042 3877 4092 4127 4230 4362 4408 4203 4368 4539 4418 4009 4011 4278 4243 3966 3769 3675 3400 3277 2546
4100 4009 4076 4126 4294 4255 4414 4425 4389 4353 4467 4461 4335 3944 3947 4083 4129 3947 3685 3677 3563 3229
4075 4280 4353 4339 4309 4348 4407 4411 4463 4443 4410 4591 4420 3556 3926 3769 4018 4228 4022 3822 3849 3640
4110 4402 4489 4520 4526 4632 4496 4550 4546 4510 4401 4378 4221 2825 2270 3002 3808 4224 4401 4206 4265 3999
4198 4337 4558 4674 4698 4612 4628 4631 4608 4520 4512 4464 4480 2964 2187 2108 3603 4059 4294 4405 4295 3918
4063 4403 4575 4672 4674 4719 4655 4594 4621 4616 4654 4573 4422 3465 2648 2067 2867 3701 4243 4197 4263 4300
4196 4402 4563 4605 4630 4678 4648 4635 4556 4629 4671 4642 4540 3544 3204 2566 2671 3184 3566 4132 4177 4078
4447 4460 4573 4618 4731 4720 4705 4654 4486 4562 4620 4280 4652 3996 3403 3054 2905 3104 3261 3662 4175 2903
4609 4724 4678 4693 4812 4855 4804 4512 4685 4583 4602 4683 4501 4576 3709 3269 3336 3099 3109 3263 3443 3769

GFSNIL_con_mucape_030.txt.gz
CAPE
3456 2323 1688 3251 1727 1872 1806 1644 2990 2584 3098 3156 3102 3103 3711 2984 2964 3077 2682 2977 1871 1224
2534 3221 1824 2213 2871 2485 2409 2316 3280 2763 2789 2773 3130 3166 3308 2884 3245 3330 2872 2540 2628 1753
2722 2968 2943 2048 2846 2331 2873 2544 3824 3120 3062 3097 3164 3514 3367 3225 3197 3003 3149 2347 2154 1754
3443 2777 2737 2882 2612 3500 2564 4129 2858 4036 3351 3236 3180 3267 3530 3032 2804 3364 2875 2706 2576 1767
3495 3648 3254 2546 2862 3135 3921 2935 4060 3603 3444 3431 3123 3209 3183 3222 2415 3046 3125 2774 2675 2067
3585 3489 3603 3535 2659 3309 3198 3931 3094 4036 3804 3283 3250 3126 3342 3204 3147 2522 3287 3071 2633 2307
3757 3562 3525 3484 3570 2961 3502 3276 3674 3471 3601 3814 3351 3275 3157 3258 3312 3099 2857 3252 3055 2653
3624 3915 3700 3645 3678 3786 3394 3481 3416 3551 3610 3509 3703 3438 3216 3161 3278 3385 3155 3005 3274 3007
3521 3713 4075 3933 3857 3941 3884 3771 3860 3789 3656 3689 3613 3390 3112 2934 3197 3387 3332 3269 3116 3185
3583 3736 3932 4094 4111 3970 4049 4023 4004 3992 3968 3713 3717 3430 3230 2991 3103 3207 3283 3318 3353 3278
4077 3856 4021 4085 4181 4212 4180 4216 4117 4176 4186 4068 3919 3534 3391 3131 2749 3091 3147 3229 3301 3280
4328 4192 4157 4236 4245 4299 4357 4288 4317 4257 4301 4294 4144 3774 3517 3333 3032 2681 2946 3250 3330 3345
3759 4187 4207 4309 4399 4413 4467 4442 4404 4393 4341 4233 4298 4048 3845 3555 3285 2838 2640 2904 3228 3257
4460 4157 4249 4444 4552 4550 4572 4530 4490 4442 4442 4398 4297 4292 4130 3890 3559 3291 2960 2716 2786 2957

GFSNIL_con_mucape_036.txt.gz
CAPE
859 762 679 837 781 485 741 682 739 1453 1782 1782 1551 1314 1054 1052 1155 1475 779 949 522 80
1077 989 949 961 659 643 727 1013 882 1045 1530 1590 1630 1417 1323 1219 1031 1635 1626 818 1105 510
1305 1534 1076 999 937 1135 902 982 1280 1156 1536 1616 1715 1656 1410 1540 1299 1420 1694 1656 828 1020
913 927 1817 1431 1058 717 1124 1383 1072 1407 1348 1697 1673 1772 1547 1517 1775 1557 1551 1836 1702 1019
1379 987 929 1814 1811 1215 682 1071 1680 1255 1424 1544 1736 1732 1701 1440 1529 2190 2270 1870 1963 1858
1629 1458 1110 1042 1729 1956 1508 980 1392 1694 1532 1514 1630 1747 1890 1698 1636 1610 1947 2164 2017 2024
1696 1743 1538 1242 1055 1714 2030 1595 1064 1671 2055 1971 1844 1753 1713 1959 1922 1791 1785 1837 2003 1980
1674 1861 1969 1841 1527 1200 1419 1933 1918 1191 1663 2246 2287 2274 2135 1864 1889 2096 2138 2015 2066 2149
2139 1957 2060 2188 2187 1925 1557 1346 1735 2000 1923 1822 2238 2373 2430 2377 2237 2016 1997 2049 1980 1929
2303 2449 2342 2306 2362 2399 2294 2049 1747 1464 1951 2051 2133 2372 2515 2544 2484 2401 2270 2134 2075 2084
2560 2553 2635 2617 2521 2526 2525 2659 2579 2250 1964 2152 2092 2154 2552 2731 2698 2564 2488 2482 2471 2410
2554 2836 2811 2764 2786 2732 2761 2663 2660 2732 2574 2343 2181 2493 2452 2632 2838 2863 2892 2870 2813 2782
2438 2692 2847 2887 2879 2946 2869 2863 2799 2745 2839 2868 2797 2753 2828 2874 2811 2710 2727 2760 2891 2973
1955 2262 2676 2823 2951 2967 3096 2975 3003 3032 2974 3069 3147 3168 3176 3179 3300 3280 3220 3155 3101 3018

GFSNIL_con_mucape_039.txt.gz
CAPE
79 26 64 201 482 667 654 582 725 1093 1273 1081 1122 1379 1155 1201 1061 959 845 920 269 115
178 201 197 226 201 299 673 649 586 785 1099 1198 1240 1576 1535 1144 955 976 1186 789 772 454
420 416 436 424 418 372 694 697 578 619 905 1255 1418 1594 1579 1366 1020 1070 1079 1359 1135 845
639 648 614 657 606 548 631 648 817 827 829 1017 1108 1270 1482 1566 1356 1099 1025 1277 1509 1471
838 984 1013 802 813 784 779 845 837 947 1032 1066 1202 1229 1320 1554 1639 1360 1336 1357 1420 1521
766 824 1027 1414 1247 1009 968 934 916 1120 1281 1212 1301 1427 1407 1425 1573 1636 1480 1439 1562 1740
1104 1008 869 840 1221 1497 1430 1245 1186 972 941 1174 1492 1439 1563 1615 1612 1599 1592 1633 1711 1859
1381 1338 1239 1103 1046 1202 1457 1334 1364 1390 1254 1313 1461 1643 1615 1644 1737 1708 1648 1576 1573 1620
1365 1457 1477 1421 1326 1234 1201 1510 1374 1275 1290 1305 1574 1716 1841 1877 1916 1820 1814 1727 1647 1614
1468 1418 1538 1615 1585 1514 1362 1256 1401 1487 1267 1190 1222 1516 2025 2064 1993 2028 2077 2110 2026 1948
1812 1700 1604 1727 1886 1896 1779 1606 1497 1373 1368 1478 1501 1631 1617 1995 2199 2046 2084 2075 2043 2082
2016 2036 2079 2020 1975 2107 2160 2172 2074 1963 1830 1666 1535 1759 1971 2075 2145 2211 2215 2206 2258 2338
2173 2246 2268 2395 2411 2308 2362 2371 2415 2503 2518 2437 2363 2318 2258 2126 2114 2081 2115 2258 2413 2533
2198 2315 2484 2498 2519 2593 2625 2644 2682 2675 2644 2650 2696 2703 2741 2771 2786 2760 2824 2894 2962 2989

GFSNIL_con_mucape_042.txt.gz
CAPE
74 0 0 0 0 0 64 327 519 699 823 878 948 879 851 931 849 922 782 816 697 317
65 95 5 0 10 24 76 261 445 628 927 906 962 948 993 1355 1024 1051 992 829 650 689
115 121 77 39 10 45 125 368 503 570 795 989 1034 1015 1024 1304 1509 1159 984 926 1044 887
168 126 117 120 58 65 120 155 360 583 579 899 1069 1142 1111 1345 1505 1426 1235 1035 1113 1108
244 266 267 264 183 176 241 259 417 596 582 713 947 1047 1151 1218 1360 1419 1519 1358 1139 1321
331 430 445 450 353 342 372 400 383 508 706 776 978 1098 1133 1203 1325 1475 1479 1593 1471 1378
482 583 679 682 641 552 569 582 593 610 718 874 1025 1262 1343 1329 1344 1386 1578 1670 1613 1582
606 636 697 905 1136 868 770 728 699 731 764 849 1028 1141 1461 1595 1560 1520 1484 1539 1685 1771
773 749 710 633 684 1189 1122 1069 1033 1014 1012 854 966 935 1036 1323 1726 1757 1690 1627 1566 1625
1069 1116 1050 931 778 779 1011 1252 1125 1054 1030 997 1177 1198 1221 1284 1574 1740 1827 1847 1823 1791
1295 1299 1308 1288 1192 1114 1099 1103 1283 1397 1234 1113 1031 1004 1324 1411 1403 1673 1792 1844 1924 1964
1452 1371 1369 1462 1506 1458 1419 1359 1291 1242 1326 1471 1420 1172 1071 1202 1331 1694 1846 1969 2061 2056
1693 1653 1563 1544 1599 1747 1829 1856 1754 1574 1505 1488 1459 1420 1411 1460 1557 1453 1621 1992 2175 1978
1901 1927 1943 1935 1913 1910 2053 2155 2255 2308 2280 2180 2111 2176 2246 2366 2442 2397 2362 2389 2440 2551

GFSNIL_con_mucape_045.txt.gz
CAPE
1575 779 757 1244 722 691 534 768 1422 1933 1927 2112 2230 2225 2196 1979 1986 1975 1947 1884 1792 1178
1408 1365 990 1538 1246 747 1192 600 1326 1760 1886 1980 2083 2212 2292 2054 2301 2105 2270 2161 2213 1917
1221 1322 1374 1376 1444 1406 903 991 990 1783 1893 2061 2097 2225 2394 2086 2313 2550 2347 2063 2182 2167
981 1012 1143 994 1094 1594 1159 1319 1550 1862 1947 2063 2133 2249 2476 2396 2245 2552 2633 2466 2300 2389
964 1021 875 1264 997 1387 1669 1389 1620 1702 1908 2031 2060 2141 2333 2266 1998 2454 2522 2597 2608 2458
986 909 1311 1427 1385 1450 1605 1718 1325 1560 1775 1998 2002 2122 2237 2312 2378 2411 2398 2485 2695 2727
1267 1343 1304 1647 1783 1341 1857 1816 1769 1764 1902 1849 1979 2062 2155 2268 2423 2495 2472 2561 2612 2709
1479 1609 1765 1940 2011 1762 1741 1976 2018 1905 1743 1827 1801 1703 2128 2343 2521 2626 2672 2677 2737 2771
1737 1855 1941 2108 2182 2040 1971 1953 2180 1835 2059 1924 1656 1059 1156 1739 2301 2742 2869 2824 2806 2815
2022 2040 2139 2246 2401 2534 2298 2061 2213 1922 1983 2199 2480 1325 1063 1061 1927 2421 2699 2897 2954 2895
2198 2173 2260 2320 2382 2575 2514 2608 2519 2198 2295 2304 2526 1589 1168 982 1411 2602 3004 3092 2898 3199
2324 2357 2427 2402 2402 2197 2084 2151 2419 2321 2486 2460 2532 1536 1211 1132 1615 2093 2889 2997 2970 3002
2531 2611 2690 2809 2824 2820 2466 2136 2003 2115 2396 2240 2773 2031 1367 1165 1601 2071 2022 2899 3132 2122
2819 2899 3000 3114 3202 2839 2631 2832 2669 2494 2596 2474 2288 2423 1749 1432 1639 1986 2214 2294 2388 2550

GFSNIL_con_mucape_048.txt.gz
CAPE
2191 967 978 1494 1062 834 541 546 877 2160 2208 2414 2371 2425 2527 2549 2147 2071 2077 2051 1830 682
2344 2152 1370 2390 1474 1063 1541 642 866 1173 1930 1920 2205 2440 2495 2037 2485 2298 2400 2424 2416 2109
1461 2092 1981 1753 2192 1843 1234 1471 948 1358 1414 1604 2092 2312 2612 2125 2365 2612 2476 1934 2115 2525
1429 1377 1615 1517 1629 1792 1766 1660 1930 1414 1365 1792 2232 2401 2644 2476 2122 2714 2755 2605 2343 2578
1770 1762 1350 1712 1629 1883 1967 1939 2036 1862 1740 1707 1867 2348 2690 2608 2041 2510 2636 2691 2695 2678
1330 1349 1827 2022 1901 2143 2003 2151 1929 1965 2068 2007 1796 2288 2594 2655 2556 2449 2590 2737 2765 2842
1623 1701 1582 2437 2457 1906 2442 2265 2220 2153 2122 2178 1877 1826 2270 2471 2643 2527 2552 2817 2846 2944
2458 2441 2509 2778 2746 2336 2708 2456 2427 2413 2252 2235 1948 1534 2124 2096 2195 2558 2696 2774 3030 3108
3012 3033 3057 3239 3339 3164 2898 2840 2617 2481 2417 2348 1931 997 912 1204 1818 2223 2658 2889 3018 3155
3216 3288 3357 3383 3586 3478 3420 3005 2869 2606 2773 3171 3090 1494 948 961 1681 1767 2441 3083 2842 2604
3404 3253 3539 3631 3702 3858 3273 3453 3294 2894 3398 3600 3312 2066 1619 1108 1936 2324 2535 2769 2890 3409
3405 3333 3362 3484 3638 3428 3243 3312 3209 2980 3532 3733 3773 2129 1896 1684 1993 2185 3004 2849 3112 3563
3571 3572 3592 3673 3728 3798 3347 3204 2877 2995 3378 2876 3425 2700 2098 1729 2202 2474 2150 3332 3928 2278
3437 3822 3680 4051 4039 3914 3382 3378 3686 3376 3697 3685 3245 3250 2421 2049 2349 2139 2083 2022 1939 2161

GFSNIL_con_mucape_051.txt.gz
CAPE
2413 662 194 1373 777 519 336 506 3533 2537 2185 2421 2516 2176 2778 2188 1983 2350 1860 1899 2681 1125
2397 1627 540 1169 2406 1517 1865 634 1654 2309 2203 2234 2041 2811 3266 1823 2405 2750 2486 2675 2455 1965
2591 2774 2210 2527 3129 2310 2347 2502 1366 1749 1787 2049 2503 2703 3776 2631 3186 3130 2309 1659 3757 3445
1994 2142 2524 2859 3057 3072 2771 3157 2950 2433 2315 2322 2293 2936 3858 3620 2704 2769 3373 3074 2713 3094
2195 2141 2092 2457 2875 3291 3450 2907 3098 3081 2904 2621 2453 3352 3583 2795 2274 2751 2935 2947 3470 2614
2079 2342 2095 2737 2721 3223 3449 3601 2322 3304 3539 3035 2723 3310 3596 3690 3175 2905 2934 3041 3461 3304
2407 2444 2233 2556 3061 3126 3537 3717 3574 3761 3664 3241 2987 2868 2817 3280 3489 3450 2942 3319 3395 3527
2647 2528 2676 2586 3199 3256 3579 3629 3930 3955 3740 3527 2637 1963 2839 3314 3494 3740 3385 3403 3418 3425
2715 2756 2765 2826 3277 3643 3760 3838 3987 3941 3918 3638 2164 1302 1039 1977 2906 3415 3728 3867 3965 3932
3146 3153 3179 3211 3544 3763 3865 4080 4223 4114 4035 3977 3793 1586 1016 836 1971 2823 3275 3679 4016 3471
3496 3449 3616 3706 3741 3914 3955 4008 4174 4275 4288 4216 4080 2406 1699 1032 2303 2444 2890 3581 3813 4108
3582 3743 3927 3968 3992 4080 4111 4138 4173 4311 4440 4423 4283 2510 2178 1741 2308 2358 3164 3359 3394 3507
3725 3956 4004 4079 4207 4353 4268 4250 3707 4116 4362 4032 4562 3513 2395 2050 2290 2709 2433 3445 3840 2758
3965 4135 4187 4331 4378 4417 4381 3702 4356 4199 4285 4371 4085 4397 2912 2405 3083 2542 2359 2197 1930 2236

GFSNIL_con_mucape_054.txt.gz
CAPE
2130 983 1259 2149 1395 2169 1929 1830 2625 3166 2742 3324 3277 3199 3339 2713 2754 2954 3067 3072 3075 2661
1967 1786 757 1615 2109 2256 2074 1772 2696 2876 3369 3243 3213 2918 3410 2710 2901 3155 3278 3224 3494 3210
991 1543 1617 601 1661 1628 2803 2596 2857 3060 2878 3165 3395 3274 3465 2930 2992 3475 3007 2767 3181 3314
1263 1185 998 1587 538 2529 1910 3855 3283 3613 3248 2900 2952 3459 3681 3107 2973 3143 3321 3534 3680 3518
1615 1224 1139 644 2176 1973 3313 2782 4287 3302 3819 3032 3009 3089 3202 3196 2062 2772 3186 3287 3293 3562
1650 1748 1662 1189 1175 2358 2180 3048 2535 3637 3050 3246 2682 2857 3185 3198 2892 2872 3219 3109 3417 3319
1752 1659 1390 1862 1282 2126 2709 2522 2796 2762 3212 3106 2704 2534 2972 3272 3160 3005 2811 3377 3002 3438
2214 1902 1685 1705 1943 1549 2086 2545 2854 2844 3113 3108 2845 2330 2499 2735 3191 3169 3102 3035 3253 3267
2166 2090 2106 1799 2045 2206 2128 2561 2852 3060 3067 3275 2767 2108 1556 2084 2401 3261 3140 3100 3110 3545
2309 2451 2165 2374 1919 2436 2329 2526 2847 3080 3255 3273 3198 2049 1452 1367 2043 2465 3005 3401 3275 3293
2384 2385 2499 2294 2424 2131 2523 2550 2877 3142 3273 3424 3349 2652 1777 1249 1335 2131 2715 2895 2872 3191
2224 2420 2405 2376 2355 2335 2675 2848 2888 3135 3417 3450 3497 2968 2341 1739 1208 1639 1947 2073 2275 3091
2210 2706 2564 2542 2575 2650 2837 2980 3009 3127 3307 3348 3558 3270 2749 2237 1820 1824 1910 2306 2571 2349
2880 2731 3071 3139 3107 3104 3238 3218 3306 3238 3357 3659 3534 3704 3111 2580 2170 2210 2327 2260 2315 2608

GFSNIL_con_mucape_057.txt.gz
CAPE
794 85 372 954 1374 1235 1367 1228 1803 1494 1660 1345 1672 1579 1552 1234 1417 1656 1306 1281 1919 1219
1118 172 201 393 597 742 1283 1099 1245 1720 1502 1751 1797 1756 1781 1142 1597 1695 1785 1407 1178 1855
360 1070 141 208 395 643 279 649 1378 2119 1568 2012 1711 1435 2069 1274 1700 1405 1807 1855 1966 1582
124 741 816 271 61 528 430 1785 1936 1946 2164 2178 2077 1837 1669 1605 1838 1439 1721 1770 1736 1803
263 236 604 561 155 0 613 667 1979 2009 1864 1847 1896 2083 2013 1919 1823 1702 1868 2081 1771 1863
728 155 394 187 473 312 735 668 1455 1963 1859 1812 1654 1624 1936 1881 1880 1802 1852 1973 2116 2104
797 689 93 138 12 865 439 1975 1553 2134 1676 1818 1513 1767 1773 1982 2057 2037 1795 2180 2045 2015
950 697 670 210 176 0 1199 554 1620 1625 2259 1769 1954 1549 1653 2147 2133 2104 2115 1941 1967 2335
1155 945 798 807 866 488 107 1541 1014 1255 1719 2268 2048 1972 1641 1584 2290 2354 2221 2258 2140 2222
1300 1230 988 893 780 1091 782 476 1741 1654 1747 1815 2157 2133 2051 1680 1483 1655 2298 2352 2269 2279
1378 1347 1348 1141 1012 954 1119 847 830 1449 1857 1930 1983 2375 2165 1986 1586 1437 1498 2421 2495 2302
1318 1392 1507 1350 1229 1013 1209 1337 1128 1471 1805 2063 2143 2349 2519 2184 1719 1358 1410 1613 1871 2190
1265 1511 1516 1474 1275 1449 1090 1152 1557 1388 1721 2117 2177 2367 2509 2467 2135 1571 1235 1195 1565 2034
1350 1507 1570 1621 1502 1406 1525 1324 1378 1668 1681 2044 2371 2383 2622 2659 2373 1774 1257 1201 1077 1361

GFSNIL_con_mucape_060.txt.gz
CAPE
180 133 211 517 731 1022 1220 1319 1583 1274 1139 1318 967 927 752 1192 966 1250 952 913 1287 1150
697 165 121 661 1122 1090 1046 1103 1506 1462 1249 1317 1276 1028 913 1038 868 1032 1404 1002 640 952
334 755 282 63 559 1347 1205 1057 1037 1456 1257 1237 1083 1237 1147 897 910 1103 1373 1434 1556 1241
36 300 843 154 65 414 860 1129 1152 1363 1341 1168 1293 1319 1465 1191 923 1217 1027 1320 1254 1328
26 64 544 764 62 35 293 651 1065 1481 1374 1253 1375 1195 1109 1407 1375 1211 1333 1155 1349 1621
213 12 103 486 638 210 23 218 1542 1652 1697 1420 1412 1550 1438 1346 1348 1330 1431 1340 1402 1545
582 217 5 115 350 465 341 1 394 1703 1643 1521 1643 1738 1675 1660 1540 1433 1392 1394 1470 1747
586 643 335 102 116 132 317 281 137 888 1616 1524 1336 1222 1160 1245 1391 1409 1372 1481 1554 1676
524 703 698 533 345 56 0 368 336 1050 1239 1402 1525 1330 1338 1256 1348 1436 1491 1502 1650 1688
1015 791 727 703 646 522 268 0 527 445 1291 1536 1481 1531 1396 1282 1238 1497 1633 1701 1786 1802
1255 1182 1046 920 869 776 641 428 13 718 637 966 1513 1838 1725 1598 1484 1340 1310 1723 2003 2068
1509 1386 1303 1209 1089 966 833 723 531 295 1247 1110 1036 1310 1737 1837 1775 1664 1557 1375 1327 1695
1001 1456 1405 1310 1253 1118 1020 868 856 633 455 1191 1546 1598 1590 1822 1600 1634 1719 1638 1423 1386
1167 1000 1385 1350 1287 1235 1128 1036 976 987 843 902 1173 1349 1664 1743 1723 1496 1349 1511 1328 1213

GFSNIL_con_mucape_063.txt.gz
CAPE
0 110 415 409 473 404 779 1121 1165 1139 971 1141 693 838 823 1186 1112 1087 678 983 1235 767
3 6 198 314 342 488 710 1010 1193 1192 1083 1167 1024 873 1057 754 1047 1045 1102 824 599 626
96 21 16 117 246 662 727 1005 1028 1262 1243 1181 1219 1171 952 878 1030 865 973 1427 1167 860
73 305 307 98 73 215 969 1124 1063 1097 1367 1316 1293 1254 1237 1100 953 982 996 1160 1455 1286
18 7 300 342 237 86 51 477 988 1092 1117 1257 1359 1249 1160 1305 1274 1109 1071 1225 1119 1274
14 0 9 189 373 301 63 27 307 621 1032 1198 1188 1240 1188 1282 1239 1386 1359 1272 1522 1322
179 85 28 0 115 337 329 133 26 873 1218 1266 1178 1221 1255 1214 1208 1298 1388 1411 1437 1434
305 244 142 27 0 58 191 212 184 115 1164 1495 1550 1428 1314 1353 1414 1420 1535 1576 1505 1456
341 339 297 211 88 52 6 72 102 117 98 1000 1314 1492 1416 1399 1501 1542 1476 1379 1320 1357
407 419 469 464 405 255 169 119 24 27 154 215 737 1225 1347 1264 1217 1079 1071 1149 1222 1290
536 494 516 558 579 562 453 341 274 210 63 389 541 785 1199 1308 1353 1200 1155 1182 1260 1321
756 743 731 721 742 724 700 636 579 500 385 285 260 811 1140 1254 1286 1213 1130 1145 1205 1377
1017 993 987 987 972 931 897 922 893 823 663 564 431 256 893 1346 1239 1289 1314 1320 1266 1246
599 1248 1367 1324 1216 1188 1250 1141 1070 1041 869 743 589 583 546 723 879 860 877 880 884 966

GFSNIL_con_mucape_066.txt.gz
CAPE
52 116 182 187 191 141 403 739 885 940 931 733 719 598 498 687 937 733 607 1058 1124 644
3 6 187 350 303 336 405 627 906 914 821 835 867 651 738 683 749 814 1008 708 635 835
38 0 7 138 286 293 326 528 853 1012 937 879 1041 915 725 775 773 736 814 1057 957 654
37 0 0 0 110 210 325 494 637 981 953 899 883 1069 1085 815 828 789 837 712 1159 1295
61 36 0 0 0 8 150 462 906 990 1005 966 1019 1004 1093 1085 1146 883 908 1071 993 1175
71 0 108 60 2 0 4 40 100 540 790 1037 1036 1050 1114 1192 1267 1225 1046 1053 1105 1231
158 118 16 17 52 13 0 0 38 233 549 895 976 1065 1147 1075 1125 1201 1215 1233 1252 1372
196 149 92 46 2 32 0 0 0 10 496 947 1075 974 1165 1220 1139 1110 1146 1244 1223 1229
249 197 96 111 78 28 22 0 0 0 71 594 927 1125 1213 1293 1320 1309 1311 1318 1265 1376
301 289 277 188 146 148 101 24 8 0 0 163 481 588 1062 1198 1243 1257 1296 1374 1383 1191
245 275 335 310 273 278 269 214 149 82 44 2 73 207 499 845 845 1118 1081 1090 1142 1199
339 435 411 389 461 465 451 438 384 332 246 186 157 48 142 269 382 682 983 995 1115 1236
404 655 671 648 592 562 588 630 621 596 604 565 512 440 379 241 189 284 480 861 953 884
79 271 850 840 782 788 825 793 791 775 845 912 870 798 687 605 427 358 309 485 757 1037

GFSNIL_con_mucape_069.txt.gz
CAPE
1136 1014 1057 1390 1089 1234 1312 1544 2111 2235 2207 1981 1900 1742 1819 1838 1754 1788 1753 2200 2279 1608
1107 1101 1215 1262 1352 1132 1481 1356 1933 2203 2228 2053 1981 2009 1944 1596 2049 2257 2191 1906 2090 1867
789 989 1106 1288 1489 1385 1495 1673 1643 2012 2194 2241 2218 2110 2101 2001 2009 2131 1896 1776 2197 2039
629 617 814 862 1244 1572 1684 1791 1922 2067 2085 2279 2256 2356 2320 2108 1938 2127 2076 2008 2099 2244
900 676 578 690 816 1328 1645 1730 2003 2066 2222 2354 2287 2343 2425 2296 1868 2012 2062 2017 2071 1913
749 751 740 812 726 876 1186 1596 1611 2152 2298 2389 2390 2456 2412 2378 2335 2279 2029 1998 2172 2127
578 780 865 1340 1055 798 1085 1121 1304 1621 1928 2323 2436 2434 2400 2437 2484 2468 2269 2194 2147 2175
863 795 500 758 1435 1121 946 1078 1175 1143 1272 1525 1639 1670 2190 2370 2371 2354 2373 2305 2247 2150
1203 1202 1141 1070 1005 1412 1179 1057 1165 998 1053 1170 935 485 865 1625 2183 2329 2353 2397 2357 2285
1021 1174 1335 1011 1095 1315 1310 1386 1256 1015 1125 1398 1557 503 483 889 1548 2134 2490 2519 2436 2243
830 954 1170 1062 1144 1274 1062 1303 1374 1126 1209 1336 1209 465 343 630 1314 2078 2033 2242 2508 2516
805 880 934 1085 1469 1158 912 977 988 993 1197 1221 1236 199 115 154 927 1221 2222 2160 2195 2513
659 464 1256 1096 1188 1249 1230 980 817 723 861 721 1257 517 186 126 295 792 864 1696 2303 1182
51 402 365 605 1576 1317 1299 1335 1298 1025 1069 1062 794 939 559 490 510 578 806 636 635 680

GFSNIL_con_mucape_072.txt.gz
CAPE
1862 1563 1456 1380 806 1183 1153 1360 1720 1967 1628 1797 1767 1668 1679 1622 1329 1441 1735 1831 2094 1171
1963 1788 1189 1266 1411 1138 1225 1204 2083 1545 1496 1513 1952 2082 2284 1786 1811 1672 2015 1664 1727 1883
1775 1885 1707 1583 1720 1411 1107 1611 1635 2226 2015 1682 1987 2395 2501 1508 1936 1919 1548 1198 1884 2220
1548 1579 1767 1685 1730 1784 1522 1653 2127 2219 2316 2188 1921 2210 2768 2080 1686 2362 2063 1669 1754 2273
1673 1531 1350 1610 1563 1624 1719 1709 2158 2562 2368 2460 2174 2516 2576 2086 1656 1880 1929 2138 1962 1977
1404 1419 1431 1361 1544 1506 1593 1732 1837 2121 2494 2403 2333 2771 2804 2255 2044 2262 2152 2150 2106 2212
1256 1276 1417 1499 1538 1509 1616 1649 1755 1978 2189 2280 1790 2225 2486 2677 2293 2218 2118 2437 2370 2129
1312 1370 1402 1542 1787 1723 1648 1622 1621 1624 1765 2043 2112 1563 2156 2626 2517 2636 2535 2603 2718 2425
1500 1574 1598 1592 1538 1796 1888 1869 1761 1636 1439 1436 1282 939 1108 1783 2514 2531 2586 2576 2790 2712
1125 1572 1695 1779 1788 1704 1626 2045 2299 1862 1772 1957 1830 505 531 827 1475 1744 2156 2442 2407 2478
710 1050 1545 2168 1931 1868 1812 1854 1994 2169 2489 2469 2060 773 448 379 1299 1796 2266 2183 2238 2856
317 1082 1209 1397 2062 1969 2043 1921 1759 1772 2302 2576 2563 1033 636 403 1055 1059 2086 2333 2662 2908
118 175 548 1279 2072 2548 2165 2021 1764 1765 1856 1518 2258 1492 926 422 787 1178 690 1653 2514 1637
125 72 98 415 1746 1843 2300 2563 2397 2111 2148 1947 1808 1781 1165 809 894 839 880 731 461 484

GFSNIL_con_mucape_075.txt.gz
CAPE
2424 1598 1226 1593 1605 1325 1704 1041 3035 1932 1633 1725 2089 1784 1836 1829 1345 2523 1506 1256 2329 2250
2612 2393 1577 2537 1702 1506 2317 1122 2014 1866 1781 1761 1773 1987 2437 1585 2173 2662 2046 1667 1905 2191
2246 2383 2085 1587 1909 1709 2042 1443 1366 1940 2027 1778 1698 1846 2244 2598 2505 2008 1605 979 3049 2947
2099 2163 2277 1847 1771 1909 1588 1752 1735 2864 2198 2143 1980 1936 2756 3138 2086 1944 2309 2656 1692 2683
2030 2103 1980 2193 2029 2325 2458 1825 2050 2121 2199 2248 2192 2502 2685 2136 1509 1978 1999 2268 2885 1770
1846 1952 2001 2073 2101 2704 2557 2298 1505 2247 2553 2055 2101 2900 2758 2816 2196 2047 1939 2014 2429 2310
1841 1877 1857 2308 2750 2044 2923 2599 2451 2408 2850 2526 1935 2065 2358 2781 2666 2636 2386 2361 2565 2463
1709 2046 1774 2240 2894 2595 2847 2764 2648 2670 2765 2404 2123 1505 2798 2687 2676 2814 2896 2912 2602 2999
1479 1827 2315 2297 2282 2810 3027 3201 3276 2544 2659 2666 1419 860 1005 1732 2822 3262 3564 3659 3784 3684
735 1545 1633 2404 2471 2712 2734 3027 3600 3194 2843 3115 2970 1036 464 949 1622 2709 3355 3268 3788 2801
357 644 1006 1985 1945 2373 2610 2612 2996 2997 3528 3591 3104 1572 861 393 2208 2387 2611 2981 3396 3547
246 471 551 822 1303 2609 2367 2242 2243 2547 3291 3621 3618 2044 1376 789 1263 1424 2375 2660 2655 2982
77 100 113 206 918 1098 2333 2165 1960 2321 2564 2469 3268 2549 2063 1415 1389 1545 1581 1995 2361 1406
71 59 78 90 83 103 759 2011 2264 2031 2527 2968 2692 3073 1981 1745 1707 1737 1608 1515 1511 1429

GFSNIL_con_mucape_078.txt.gz
CAPE
2665 1995 1633 713 1731 1120 326 1303 2102 2417 2930 2915 2650 2695 2911 2856 2748 2969 2598 2635 2913 2954
2545 2294 2486 2568 3304 1543 635 1724 1524 2138 2569 2709 2001 3076 2801 1935 2514 2486 2390 3175 2743 2854
2769 2979 2838 2997 3087 2817 951 386 343 534 1529 2784 2104 2290 2609 2735 1292 2114 1701 1978 2819 3080
2605 2780 2827 2833 3232 2870 2394 1007 434 91 663 1419 2734 3045 2972 2205 1847 2275 2392 3174 2794 2866
2798 2771 2920 2873 2868 3315 3148 2959 971 733 1104 1454 2456 2515 2862 2413 2095 2093 2568 2776 2428 2771
2534 2820 2833 3131 2910 3163 3237 3145 2555 2655 3267 3096 2424 2679 2368 2858 2826 2155 2308 2971 3135 2851
2376 2389 2425 2940 2987 2790 3321 3007 2781 2901 3099 2794 2901 2863 2644 2683 2957 2477 2513 2824 2991 3089
831 2389 3128 2904 2707 3013 2910 2960 2987 2886 2644 2841 2499 2046 2613 2977 2803 2353 2132 2364 2680 2936
379 857 1377 2278 2629 3405 3012 2943 2802 2880 2788 2523 2362 1387 1121 2093 2694 2831 2869 2422 2860 3230
146 35 513 1540 2471 3029 2994 3037 2933 2888 2845 2796 2660 1647 675 587 1933 2666 2932 2912 2711 2710
162 268 533 748 930 1350 2534 2778 2769 2670 2853 3051 2905 2143 1591 1121 961 2099 2056 2506 2804 2678
246 215 203 206 525 637 837 1938 2238 2231 2442 2785 2984 2409 2026 1592 1107 1201 1727 2027 2090 2083
55 39 209 201 188 352 528 742 1574 1961 2189 2058 2505 2689 2525 1898 1598 1533 1305 1230 1530 1563
62 42 4 42 85 126 432 487 539 732 1930 2037 2185 2398 2281 2276 2005 1909 1742 1568 1402 1249

GFSNIL_con_mucape_081.txt.gz
CAPE
887 489 534 505 216 668 657 883 1168 1489 1402 1140 1048 1227 1211 1038 1368 1378 1039 488 992 1545
936 874 573 286 289 651 151 791 1232 1231 1377 1362 1231 1206 1484 904 1217 1272 1084 1237 1598 1011
1724 1360 1131 1058 922 933 708 755 760 759 1029 1200 1285 1524 1454 1109 983 966 661 846 658 1258
1653 1513 1303 1385 1411 1093 734 554 465 582 245 709 1156 1322 1303 1009 1190 1029 935 1140 1752 1400
1851 1815 1699 1645 1281 1590 851 916 622 152 422 922 917 1331 1375 1246 1114 1013 1152 1086 1512 979
1625 1812 1619 1698 1871 2037 1217 890 1005 762 529 568 794 1111 1406 1311 1660 1275 1118 1070 1360 1399
731 957 1202 1815 2142 2113 2107 1571 1217 1369 1156 1245 1281 1373 1624 1399 1212 1513 1412 1353 1636 1634
528 521 516 581 1224 2034 2118 2236 2005 1675 1921 1906 1557 1805 1889 1640 1213 1330 1322 1454 1498 1610
121 111 177 128 455 1274 1608 1949 2117 2063 1816 1759 1899 1519 1552 1723 1802 1718 1588 1193 1061 1489
81 43 37 120 199 593 1269 1547 1833 1974 2141 1836 1793 1868 1747 1393 1458 2028 1824 1383 1307 1445
65 100 136 210 240 542 715 968 1627 1479 1573 1859 2067 2066 1782 1597 1380 1124 1570 2123 2080 1897
83 125 80 157 270 223 302 640 828 1214 1461 1488 1454 1701 2094 2044 1534 1350 1089 1014 1514 1908
99 88 53 96 112 85 98 196 426 698 881 1262 1391 1539 1729 1878 1613 1608 1415 1264 1027 1248
15 47 38 42 42 41 85 93 143 292 403 508 1299 1448 1554 1556 1673 1597 1385 1345 1362 1279

GFSNIL_con_mucape_084.txt.gz
CAPE
686 469 182 261 548 537 825 848 1092 1032 1047 958 984 729 680 1057 953 996 1244 527 912 867
704 469 380 529 389 351 779 642 799 1066 1223 1035 865 746 1167 909 845 980 992 646 963 1066
763 830 408 476 473 351 545 743 792 1214 1102 1051 1125 819 1039 1165 752 668 699 412 638 583
1140 923 862 835 828 887 779 690 759 839 726 993 1015 1142 1244 1127 822 923 739 462 1153 1351
756 995 1110 1142 1143 1162 1041 682 590 541 529 319 652 942 1208 1081 952 1021 894 851 816 911
377 545 652 956 1221 1103 1034 873 712 679 222 54 409 860 1111 1148 999 844 901 1114 769 975
260 321 450 703 830 963 1132 1056 866 849 719 328 237 615 764 1083 1098 1124 1320 1041 964 987
101 162 267 397 431 560 851 1102 965 873 881 1015 864 891 797 1311 1255 998 892 1133 1302 1271
79 85 58 53 116 136 243 700 1198 1298 1367 1497 1788 1688 1454 1383 1338 1335 1223 904 971 1023
54 33 35 69 76 67 52 295 817 1213 1297 1383 1405 1589 1690 1430 1326 1376 1404 1348 1265 1194
111 111 61 86 103 104 59 227 560 816 1162 1223 1396 1433 1455 1553 1438 1378 1261 1456 1562 1468
88 50 37 9 93 90 132 172 246 510 641 893 1057 1143 1218 1302 1372 1408 1268 1090 1055 1430
128 83 95 96 135 115 144 118 95 95 331 522 724 765 797 1063 1017 1105 1192 1174 1124 1189
3 31 77 81 74 139 111 86 79 75 76 147 264 277 436 647 736 1004 1130 1124 1021 1031

GFSNIL_con_mucape_087.txt.gz
CAPE
636 494 373 538 507 619 721 787 977 988 941 759 596 468 597 989 1117 899 1046 756 820 1070
533 569 399 207 328 458 521 670 703 917 988 868 822 738 787 668 792 712 712 845 631 780
519 492 406 270 432 340 249 534 580 692 897 1055 910 820 583 952 828 722 658 538 407 576
498 520 540 373 288 425 178 356 481 571 896 962 907 924 872 975 1012 880 532 693 536 1026
718 704 774 573 597 735 927 820 589 515 794 791 764 806 952 1133 1112 852 768 723 726 493
377 449 540 596 768 751 900 878 729 591 576 557 333 427 702 1002 1162 1013 798 675 672 1001
168 185 224 245 393 608 604 817 885 821 593 589 222 55 363 703 954 1001 948 923 1025 778
82 68 53 119 135 255 415 472 677 938 893 705 637 447 423 521 724 937 948 956 888 1015
14 58 35 39 51 71 112 124 249 570 973 980 894 812 948 955 878 1058 1231 1094 1035 1073
62 47 58 31 32 52 23 40 39 205 553 838 987 1114 1376 1401 1359 1353 1272 1295 1231 1147
60 45 76 47 29 45 24 16 8 40 152 292 538 774 950 1051 1180 1239 1235 1233 1211 1225
102 71 103 76 80 47 33 23 11 20 62 122 199 385 466 521 768 867 1190 1289 1212 1202
90 115 125 90 8 0 1 43 73 58 51 76 72 109 239 321 512 647 671 870 907 920
33 98 159 71 72 34 32 30 92 108 76 72 77 79 163 138 155 254 456 552 638 756

GFSNIL_con_mucape_093.txt.gz
CAPE
1113 922 1095 1193 1239 1174 1747 2423 1864 1852 1871 1734 1720 1639 1728 1511 1839 2166 1914 2029 2233 1757
989 1012 1087 1206 1229 1292 1472 1255 1727 1786 1709 1957 1821 1667 1504 1277 1896 2113 2018 1800 2031 1515
1224 1113 1032 857 779 1009 1197 1377 1508 1613 1711 1781 1897 1800 1738 1624 1643 1944 1760 1497 1733 1841
1067 1040 1072 1113 1159 1135 1077 920 1200 1377 1354 1703 1738 1748 1780 1700 1795 1736 1821 1644 1697 1742
758 805 1146 1338 1153 1267 1120 1041 1035 1026 1272 1293 1258 1709 1877 1755 1273 1690 1754 1796 1580 1521
137 1138 1447 1369 1377 1292 1391 1492 1415 1245 1315 1280 1249 1401 1614 1730 1633 1418 1641 1473 1758 1653
129 243 366 428 526 812 1276 1562 1549 1525 1396 1125 1066 884 771 954 1319 1490 1542 1623 1607 1770
72 189 242 283 229 224 375 652 1120 1509 1411 1288 988 717 721 665 682 994 1391 1354 1429 1713
67 70 34 103 133 123 134 181 257 624 795 828 589 499 603 604 950 1269 1464 1781 1931 1720
47 41 33 51 26 31 11 28 64 52 94 139 180 281 341 446 1031 1590 2062 2225 2377 2114
35 11 29 54 6 33 60 29 11 1 17 33 14 62 75 131 224 751 1214 1520 1681 2027
13 12 5 5 0 24 51 47 46 24 26 1 15 12 19 31 92 264 382 590 863 1030
93 80 58 62 10 1 3 5 6 0 0 17 10 3 6 18 17 0 0 94 292 418
67 47 171 44 12 2 14 57 8 4 0 0 3 17 8 11 21 0 0 0 21 65

GFSNIL_con_mucape_096.txt.gz
CAPE
1609 682 1141 1062 913 2129 1632 1141 1621 1330 1391 1729 1784 1975 2155 1748 1465 1656 1754 1994 2367 1576
1664 1492 888 1009 1060 2793 1919 1541 1363 1081 1101 1160 1442 1837 2007 1346 1951 2105 2004 1729 1930 1858
750 736 686 1092 1261 1378 1420 1930 1406 1329 1184 1192 1307 1785 2262 1405 1657 2133 1837 1441 1499 1803
926 705 734 729 901 944 1372 1775 1961 1542 1137 1312 1134 1231 1755 1648 1556 1924 1724 1799 1745 1764
906 826 729 781 845 1190 1085 1793 1617 1561 1630 1614 1328 1545 1565 1497 1297 1666 1451 1199 1443 1566
463 620 818 987 938 1176 1422 1289 985 1125 1235 1396 1567 1399 1666 1990 1750 1418 1204 1240 1224 1447
140 246 538 766 1111 1213 1455 1602 1109 1176 1223 1313 1815 1724 1700 1774 1853 1668 1326 1311 1178 1080
204 253 370 769 875 991 1129 1246 1485 1724 1889 1908 1821 1442 1840 1592 1501 1500 1393 1373 1451 1362
288 173 153 264 439 521 578 650 1050 1254 1542 1527 1194 660 431 570 1659 1695 1700 1849 2067 1832
56 81 83 33 46 102 220 268 256 428 796 404 290 147 202 286 1174 2068 2063 2021 1962 1724
143 64 21 5 17 39 51 147 154 190 178 34 33 29 70 98 435 1402 1755 1753 1761 1956
21 9 54 32 48 47 52 42 69 99 79 26 9 15 24 24 345 732 976 725 761 608
33 34 5 2 5 7 21 40 36 20 28 9 0 1 6 27 26 19 60 433 90 157
84 89 74 78 94 38 0 0 0 10 8 4 0 0 15 27 12 5 8 27 16 0

GFSNIL_con_mucape_099.txt.gz
CAPE
1229 950 801 1222 2211 936 884 852 2699 1745 1679 1631 2025 1960 1821 1586 1555 2527 1823 1986 3596 2281
1527 1424 1481 1387 1473 1377 1790 1855 1402 1208 1248 1443 1571 1776 1840 1453 1507 2131 2198 2119 2073 2099
1477 1275 1012 1073 1234 1390 976 1395 1608 928 1096 1165 1223 1455 1833 2307 1952 1867 1849 1560 2612 1808
1391 1623 1426 965 836 1057 1145 1466 1219 1452 1348 1344 1455 1529 2215 2473 1836 2103 2066 2383 2096 1611
961 1163 1397 914 907 916 1273 1352 1373 1507 1602 1719 1499 2032 2196 1743 1478 1775 1637 1406 1341 1453
1072 1158 1414 1544 1059 1013 1029 1427 1246 1506 1633 1504 2007 1958 1930 2099 1966 1571 1515 1279 1321 1249
265 341 589 682 790 1098 1691 1345 1365 1383 1610 1491 1515 1790 1808 1828 1854 1626 1362 1367 1363 1247
209 244 335 365 843 988 1758 1285 1322 1352 1456 1548 1461 838 1033 1863 1760 1912 1766 1650 1562 1719
664 841 776 713 672 761 903 1076 1278 1375 1615 1477 695 609 505 685 2083 1618 1799 1745 2025 2375
436 364 424 392 308 249 294 835 771 936 575 468 452 282 290 295 253 1641 2248 2427 2375 1838
133 119 146 113 18 39 58 350 513 531 166 46 1 23 52 85 96 1015 1607 1511 1682 1933
185 172 119 7 94 79 333 293 316 313 119 50 22 0 4 37 426 1069 1094 505 370 560
123 99 18 20 29 10 5 82 112 61 30 54 40 20 23 21 20 99 70 728 131 1
243 58 22 11 10 13 46 50 17 23 1 21 21 26 2 9 20 22 13 36 14 28

GFSNIL_con_mucape_105.txt.gz
CAPE
922 868 887 896 557 302 314 327 432 685 970 1065 1148 1137 1286 988 1302 1290 1450 1007 1646 1537
1065 893 874 992 778 639 465 297 266 439 688 846 1013 1279 1351 1041 877 1145 806 748 953 1604
981 1149 1082 939 509 563 390 177 465 316 505 542 957 996 1038 1303 1034 989 838 56 1314 1155
959 941 980 872 812 590 426 184 0 13 527 875 1068 1194 1020 981 945 722 892 1042 1121 872
734 719 766 546 515 491 488 438 547 710 1259 965 1031 1014 1239 1304 1293 1178 798 755 1089 933
339 128 643 383 237 207 647 863 1104 893 1057 962 841 841 980 1059 909 853 923 788 929 973
306 325 478 511 353 334 338 322 565 749 990 702 619 775 797 842 754 836 974 1052 1018 1030
119 35 35 39 34 62 72 123 359 639 673 603 363 232 397 384 391 762 721 795 895 718
246 106 111 151 58 27 23 3 161 120 236 230 231 175 127 136 293 748 825 687 475 734
414 301 449 374 254 121 6 36 49 23 7 29 41 83 107 89 163 271 397 712 929 673
404 562 206 100 41 10 43 33 42 21 1 4 4 58 58 46 81 209 698 632 647 534
346 242 160 111 86 33 26 36 61 66 68 49 32 42 57 52 202 511 257 117 148 104
363 245 145 87 32 13 4 25 54 24 8 4 0 0 0 0 13 31 64 130 126 57
343 255 145 120 65 32 18 0 0 4 0 0 0 0 5 1 18 19 20 17 30 19

GFSNIL_con_mucape_108.txt.gz
CAPE
620 485 396 135 133 536 537 459 429 531 941 920 920 952 1056 1005 894 1034 882 744 967 1434
460 529 583 586 633 386 232 270 233 513 580 722 800 907 1012 990 849 802 853 524 731 953
753 558 651 749 575 548 382 153 183 426 403 503 645 802 946 922 785 736 772 548 563 941
943 854 794 622 312 361 258 211 188 327 87 377 611 820 819 774 747 662 398 566 586 660
774 715 760 672 573 530 295 264 108 25 333 702 849 872 768 743 1055 738 845 542 641 696
283 259 560 469 406 458 384 424 455 594 688 791 706 711 678 773 758 772 708 743 612 693
224 164 335 361 226 220 377 319 539 616 798 684 449 482 542 567 382 463 475 586 776 782
288 248 213 219 199 128 88 133 135 415 524 699 543 184 49 92 166 288 242 475 493 477
131 102 108 99 71 21 41 42 135 156 259 318 242 91 72 42 84 331 523 460 320 244
211 196 207 253 221 147 69 74 62 36 38 33 3 0 0 22 71 137 346 460 611 414
418 437 332 239 158 68 98 125 48 6 4 14 20 7 0 31 31 157 306 356 260 201
495 414 303 209 137 30 106 99 29 12 1 6 6 2 5 138 220 246 175 179 225 120
585 576 316 194 132 67 91 111 85 42 24 29 0 0 0 0 1 37 77 77 78 61
490 503 493 233 143 125 113 108 64 22 10 0 0 0 0 0 0 0 0 14 25 9

GFSNIL_con_mucape_111.txt.gz
CAPE
315 258 276 339 323 232 400 335 444 576 1034 703 491 428 819 894 813 941 766 575 973 1068
326 405 405 346 98 222 455 432 287 384 701 780 754 773 845 920 610 627 681 618 444 889
273 461 429 481 524 435 277 213 128 255 411 500 561 597 839 919 772 594 577 596 168 782
427 418 460 624 594 423 391 240 59 160 376 296 381 453 715 684 720 644 397 363 530 412
620 618 665 681 531 230 218 183 3 34 235 7 438 770 703 698 670 620 510 432 370 520
417 415 325 518 604 518 449 246 287 327 287 654 694 692 696 661 657 753 794 643 611 564
218 210 148 156 262 366 325 377 443 461 594 726 545 442 368 373 520 528 443 552 609 659
257 273 193 152 208 166 194 105 155 401 451 503 495 435 234 87 174 202 263 420 470 452
185 228 159 153 136 100 67 30 96 116 201 180 234 321 175 89 52 120 247 333 285 240
143 196 183 148 129 96 63 60 78 98 79 60 38 5 0 0 34 107 258 400 366 239
143 178 304 333 284 206 162 118 77 57 56 26 19 21 26 3 2 31 157 223 303 256
294 373 379 298 235 189 171 137 79 54 30 12 11 31 45 127 145 148 149 147 148 154
462 433 298 289 228 161 189 158 109 65 38 29 19 1 2 0 47 101 94 71 77 83
524 429 496 341 148 97 120 156 168 108 58 27 11 4 0 0 0 0 0 3 0 0

GFSNIL_con_mucape_114.txt.gz
CAPE
196 204 194 177 223 265 262 302 265 537 828 849 602 285 49 687 563 713 747 472 793 788
258 251 161 168 310 204 158 328 267 267 544 783 564 548 604 738 393 431 419 333 351 851
292 257 282 329 315 181 234 284 336 282 272 579 575 480 572 687 734 563 451 451 291 555
337 205 398 335 413 413 325 232 170 144 139 309 296 370 432 578 651 550 429 342 371 592
278 297 402 433 456 300 225 195 168 101 168 302 172 476 534 493 675 634 567 415 311 365
339 533 503 563 399 289 229 233 200 102 12 96 495 573 596 542 479 732 706 754 577 638
490 444 305 81 75 97 151 190 198 250 338 408 575 547 538 426 294 314 470 616 658 663
195 200 172 146 70 98 115 121 109 196 247 355 453 344 304 238 116 148 224 367 625 464
148 109 155 186 146 96 116 117 72 85 103 137 137 168 205 186 72 0 61 308 402 290
157 125 126 131 131 110 87 73 78 38 13 66 85 70 13 4 7 11 53 172 220 133
125 95 99 138 126 98 81 54 66 56 66 59 40 27 22 13 3 5 13 80 75 97
117 102 118 125 96 151 146 143 131 80 52 44 36 32 31 23 19 18 27 79 86 73
172 140 101 108 133 148 147 130 110 85 55 41 26 0 0 0 1 44 55 68 71 68
145 190 158 146 127 85 153 160 141 100 145 73 54 23 3 0 0 0 0 0 4 9

GFSNIL_con_mucape_117.txt.gz
CAPE
1167 910 975 1327 1499 1222 1161 1208 1417 1567 1955 2111 1592 1310 889 1096 1692 1778 1979 2065 2138 1925
1112 1059 991 1195 1125 1074 1233 1109 1241 1128 1383 1793 1720 1369 1456 1064 1693 1741 1725 1464 1306 1843
1000 1260 1215 1214 1318 1281 1014 1056 1273 1041 1112 1529 1724 1786 1753 1979 1891 1961 1590 1205 813 1369
928 978 1240 1283 1446 1496 1173 1067 938 1007 1025 1185 1255 1259 1515 1761 1751 1886 1616 1472 1330 1542
1054 1110 1162 1354 1327 1137 1183 967 990 877 765 752 974 880 1258 1420 1255 1588 1631 1517 1472 1402
1010 1140 1270 1337 1237 1036 1049 891 647 416 336 861 727 705 1285 1803 1755 1457 1520 1429 1506 1430
1202 1285 1341 1313 788 591 664 751 875 865 869 701 860 1525 1677 1310 1320 1336 1304 1329 1540 1705
1566 1197 1236 761 731 410 420 453 495 546 701 992 925 677 525 698 788 856 938 1097 1347 1354
974 595 781 595 615 483 306 191 459 275 48 52 49 73 114 114 125 184 320 859 1049 252
244 430 208 189 305 360 141 73 187 80 53 54 47 42 65 40 17 7 229 658 1262 123
164 67 93 112 134 133 100 76 79 46 43 21 15 41 39 52 57 48 9 11 117 100
81 77 89 52 46 102 126 70 60 55 58 72 72 66 55 58 69 49 27 4 4 42
107 124 127 98 84 87 71 78 93 102 118 109 82 70 59 41 30 45 53 29 47 61
58 100 105 99 83 106 98 78 99 83 99 117 110 86 73 45 13 8 1 0 0 10

GFSNIL_con_mucape_120.txt.gz
CAPE
1295 1515 949 879 1102 797 937 934 1021 1349 1477 1547 1872 1809 1913 1436 1593 1523 1939 2226 2393 1501
1935 1672 1091 1252 1649 1279 2433 2043 1700 1685 1524 1323 1456 1460 1616 1269 1388 1784 2004 1600 2010 1791
1310 1596 1544 1560 1883 1316 1399 1698 1592 1789 1736 1707 1766 1861 2157 1417 1647 1751 1455 1167 1268 1789
1099 1172 1436 1378 1653 1855 2179 1889 1869 2035 1917 1824 1804 1859 2179 1977 1486 1765 1650 1602 1488 1625
1325 1329 1117 1435 1449 1817 2054 1982 2032 1951 1811 1568 1687 1731 1910 1908 1280 1508 1502 1339 1391 1294
1380 1433 1196 1452 1493 1760 1781 1786 1463 1490 1557 1508 1492 1527 1582 1699 1475 1481 1412 1251 1355 1310
1445 1311 1279 1551 1690 1702 1707 1689 1595 1615 1547 1388 1175 1297 1537 1434 1395 1358 1276 1460 1348 1318
1637 1616 1690 1582 1716 1619 1444 1238 1169 1171 1150 1402 1433 1074 1430 1486 1373 1335 1389 1459 1546 1119
1850 1919 1847 1428 1690 1449 1036 943 936 906 977 996 551 109 19 42 360 963 1122 1159 1126 1364
1655 1392 1815 1598 1449 1010 755 1037 838 798 702 186 40 35 1 25 49 199 459 945 1191 1285
518 799 1114 271 252 215 288 287 389 351 232 118 46 45 38 23 27 157 356 223 797 1062
243 380 173 93 99 142 165 191 55 46 27 29 43 33 7 9 83 44 64 58 73 18
384 284 120 74 47 61 32 83 58 47 50 66 65 76 66 60 175 170 120 59 65 37
80 48 99 92 56 43 50 55 65 66 74 51 56 86 95 120 87 74 93 48 46 69

GFSNIL_con_mucape_123.txt.gz
CAPE
1443 1275 1116 1631 1072 935 982 870 1953 1956 1733 1808 2003 1957 2054 1736 1568 2453 1434 2081 2710 1665
1619 1345 979 2341 1596 1425 1482 1115 1607 1605 1857 1817 1702 1727 2017 1687 1600 1548 1968 1583 2217 1919
1278 1488 1425 2530 1908 1334 2473 1947 1741 1946 1724 1876 1782 1861 2575 2112 2552 1786 1571 1188 2173 2124
1427 1389 1490 1533 1872 2009 2138 1916 1921 2130 2184 2051 1893 1898 2584 2240 2615 2283 1875 1854 1595 1591
1593 1416 1238 1451 1228 2154 2407 2445 2655 2215 2212 2068 2045 2315 2259 2107 1718 1820 1476 1656 2318 1379
1340 1508 1469 1402 1413 1656 2125 1895 1598 1908 2153 2085 1708 1759 1906 2025 1890 1684 1472 1586 1718 1552
1209 1230 1323 1637 2179 1561 1508 1872 1604 1654 1624 1606 1313 1314 1564 1675 1749 1532 1536 2058 1470 1571
2549 1958 1993 1680 2230 2234 1771 1512 1296 1172 1294 1489 1310 894 1339 1386 1524 1478 1416 1352 1453 1746
3025 1952 1664 1858 1842 1919 1668 1484 1374 1680 1071 1331 987 252 437 311 534 937 1100 1067 1120 1271
1574 1784 1845 1620 2395 2157 2027 1845 1371 1132 745 651 416 210 53 1 5 530 749 911 1138 1240
1508 1556 1634 1413 1475 1724 1628 1059 967 348 179 225 159 69 36 49 36 136 271 187 155 1058
480 564 520 747 644 496 673 602 149 89 61 85 46 26 25 21 117 132 37 31 39 31
527 552 513 552 688 514 332 110 44 58 17 32 6 37 30 42 11 153 71 38 16 23
86 50 60 87 72 62 43 3 21 15 19 47 8 28 29 57 70 75 115 180 99 37

GFSNIL_con_mucape_126.txt.gz
CAPE
2608 2401 2049 2520 2229 2237 2577 646 887 2616 3321 3005 3063 3313 3364 3135 2795 2443 2933 2999 3448 3103
2485 2250 1955 2216 2841 2416 3172 2142 2165 2572 2973 2967 3105 3054 3022 2784 2690 2707 2965 3001 3114 3063
1423 2240 2209 2267 2939 2788 2736 3002 2824 2660 2536 2737 2858 3084 3036 2613 2301 2539 2495 1961 2307 2452
1572 1937 2174 1825 2489 2419 2156 2689 2471 2643 2984 2721 2763 2592 2547 2910 2538 2441 2242 2518 2408 1971
2130 2118 1628 2164 2427 2201 2071 2793 3045 3184 3167 2829 2408 2597 2564 2190 1957 2282 2351 2424 2160 2082
2200 2046 2104 1497 2129 2506 1882 2351 2205 2670 2046 1663 1784 1479 2342 2167 2220 2170 1703 1732 1478 1519
1847 1900 1924 2527 1996 2044 2376 1911 2043 2504 2049 1633 1786 1958 1853 1813 2093 1549 1596 1841 1523 1292
2073 2050 1954 2071 2409 2393 1908 2238 2778 2356 2432 2130 1510 848 538 2094 1744 1345 1355 1466 1565 1657
2383 2502 2340 2440 2527 2427 2320 2570 1996 2072 1769 1715 604 326 227 564 420 1043 1526 1537 1469 1497
2239 2001 2236 2059 2075 2028 2153 2103 1623 1440 1206 529 282 218 186 129 87 94 1104 1422 1497 1482
1896 1518 1773 1977 2076 2086 1922 1630 1530 791 473 171 154 157 117 18 5 20 352 136 107 172
654 695 922 1022 1066 1414 1245 749 667 492 141 95 46 60 63 11 12 79 56 42 33 31
187 177 517 625 692 538 285 257 160 116 69 42 30 17 17 1 9 3 3 11 20 10
11 9 19 56 84 102 102 112 75 42 36 55 26 3 16 18 46 35 27 33 56 43

GFSNIL_con_mucape_129.txt.gz
CAPE
862 1293 595 639 721 894 936 1276 710 1398 1535 1411 1866 1649 1747 2050 1345 1323 1502 1657 1759 1586
815 907 867 806 850 1421 1235 798 543 1566 1534 1535 1668 1498 1550 1843 1498 1051 1302 1326 1536 1465
1033 752 823 909 1342 1172 1328 1355 1076 1384 1555 1499 1477 1738 1571 1608 1474 1260 1229 1284 1218 1074
754 612 948 798 981 915 1078 888 1342 1202 1337 1342 1481 1547 1354 1298 1533 1288 1004 754 808 975
431 289 835 897 777 709 821 1257 1174 1388 1599 1547 1480 1512 1354 1441 1432 1077 1175 1272 1328 878
572 846 763 1026 756 763 740 1085 1355 1485 1365 1390 1264 1208 1098 1148 1142 1117 1055 1017 889 955
970 816 1069 987 1238 1408 1120 768 1156 1270 1407 902 777 989 1039 987 1018 1157 998 839 846 701
961 982 1055 1005 975 956 912 623 516 932 1124 1185 1177 1015 635 824 836 708 672 520 595 671
824 931 1049 899 899 951 1157 1051 1242 1128 763 862 746 552 415 478 609 476 359 415 405 420
916 639 735 813 752 932 758 706 660 480 340 336 337 219 135 115 100 84 60 140 137 179
597 542 669 714 748 737 851 603 307 315 364 158 80 83 80 93 79 36 60 67 20 4
369 383 459 537 514 538 509 367 305 300 297 205 132 114 137 108 66 9 1 23 33 24
247 266 337 346 212 102 129 199 176 131 138 79 42 21 27 50 38 26 1 17 14 20
143 124 105 101 44 40 101 159 116 91 76 65 30 29 32 44 25 3 10 16 3 3

GFSNIL_con_mucape_132.txt.gz
CAPE
1005 937 663 677 812 798 888 629 619 633 1278 1395 1413 1309 1138 1405 1298 1014 1039 1086 1104 1206
567 1201 803 540 492 482 553 923 893 673 1153 1017 1473 1216 1054 1257 1511 1322 1036 844 1064 1295
544 717 953 600 528 669 1145 1130 603 785 1188 1178 1228 1290 1107 1041 1190 1120 1073 902 920 975
669 628 750 764 1008 1127 1009 1207 761 991 1104 1183 1159 1143 1296 1431 1315 1252 1222 1021 690 595
936 704 629 744 850 1174 1123 916 1084 1029 995 864 1039 1137 1226 1121 1295 1045 916 881 739 820
924 889 655 686 772 693 640 712 781 903 1118 1153 1229 1162 1215 1084 1103 1001 886 868 816 664
652 747 666 521 747 690 618 591 990 1129 1151 1127 1001 958 918 895 921 986 877 841 757 748
543 476 526 585 722 834 742 659 952 918 1055 1069 718 690 798 719 745 724 674 574 464 611
417 658 718 773 848 825 782 788 659 705 906 994 1055 1021 707 650 838 765 485 403 348 317
155 224 515 776 748 821 807 816 734 738 924 757 982 807 468 387 339 280 141 105 110 145
7 34 293 608 607 759 765 630 849 735 453 390 367 210 161 99 68 56 61 46 51 24
40 200 325 435 573 603 466 370 275 297 262 211 130 110 118 123 133 108 78 42 29 12
5 339 402 464 463 413 408 203 101 131 165 113 123 134 102 56 37 44 34 56 30 13
8 86 147 249 207 286 257 208 119 85 65 55 32 7 14 26 36 60 80 47 8 9

GFSNIL_con_mucape_138.txt.gz
CAPE
673 483 341 298 315 254 186 356 389 747 663 658 578 605 695 877 905 970 1061 1000 912 909
501 555 487 386 276 366 278 271 316 358 547 696 673 795 835 807 965 1016 962 903 903 715
396 514 471 458 286 433 453 305 491 421 432 484 729 799 880 980 936 943 996 974 852 792
367 430 529 401 323 408 340 452 460 435 442 581 702 802 785 853 880 873 930 841 802 769
403 390 413 513 522 485 476 317 520 618 713 602 719 740 792 1036 1205 944 1075 1136 1031 928
249 295 361 364 412 540 555 443 496 560 547 652 712 648 723 843 893 993 1072 1029 863 981
332 284 287 312 277 329 486 550 555 762 670 726 741 751 884 911 943 951 968 981 927 820
298 276 339 326 306 263 366 513 556 730 797 756 804 725 936 934 940 872 679 808 659 414
342 316 397 416 347 315 296 365 431 677 606 606 622 660 830 831 685 651 588 578 547 480
527 328 247 283 238 280 318 330 357 470 571 449 459 586 707 677 571 580 546 642 661 414
622 363 228 259 165 215 248 292 380 351 375 390 384 515 577 539 591 627 496 489 406 169
115 164 122 208 172 162 251 252 299 290 216 337 335 368 399 538 651 529 265 152 99 76
20 21 40 36 78 84 69 87 148 234 255 286 279 235 341 461 238 146 113 99 103 95
0 2 10 132 119 98 106 79 44 205 196 174 197 181 150 93 77 77 156 27 17 25

GFSNIL_con_mucape_141.txt.gz
CAPE
1581 1381 1251 1364 1242 1288 1275 1322 1652 1921 2191 2280 2105 1792 1822 2084 2284 2148 2596 2209 2246 1621
1627 1540 1292 1463 1420 1080 1281 1066 1637 1592 1914 2022 2146 2121 2056 1924 2545 2197 2226 1994 2084 1931
1243 1406 1493 1561 1520 1296 1244 1543 1323 1481 1489 1720 1764 1976 2099 1702 1860 2201 2113 1783 2062 2103
1123 1117 1199 1299 1431 1460 1443 1604 1586 1625 1628 1614 1742 1888 2187 2062 1713 2073 2188 2184 2061 2040
1195 1247 1152 1366 1441 1530 1479 1440 1580 1696 1732 1781 1767 2027 2137 1839 1568 2067 1992 2078 2076 2084
1008 1188 1234 1280 1454 1560 1576 1617 1430 1467 1739 1904 2015 1909 2015 2016 2061 1929 2037 1894 1823 1857
957 1083 1113 1669 1739 1484 1671 1596 1599 1625 1568 1666 1932 1849 1997 1813 1930 1902 1640 2023 2102 1899
1254 909 1180 1129 1262 1202 1324 1555 1793 1993 1645 1718 2141 1714 1771 1931 1925 1878 1805 1842 1739 1667
1396 1070 1130 1429 1303 1118 1088 1266 1309 1422 1517 2082 1894 1086 705 844 1534 1910 1957 1754 1620 862
1433 1380 1604 1398 1428 1164 1157 1232 1272 1329 1457 1692 2244 885 435 489 1803 2034 1698 1528 1429 609
550 1003 1298 1459 1319 1193 1063 1054 1173 1230 1593 1480 1901 597 395 399 1379 1189 596 501 447 474
36 266 563 790 1236 1395 1008 1135 1135 1031 1591 1402 600 336 331 361 646 227 242 297 294 217
0 2 12 336 257 512 958 1082 1084 1023 1110 776 190 261 238 323 159 156 191 192 106 84
0 0 5 10 127 180 165 116 90 86 103 127 188 181 262 269 165 135 144 111 79 45

GFSNIL_con_mucape_144.txt.gz
CAPE
2153 1976 1810 1702 1281 1258 905 1333 1331 1835 2035 1984 1656 2017 2163 2563 1536 1408 1773 1913 2024 1088
2236 2329 1796 1637 1602 1611 1647 1185 1601 1877 1919 1734 1597 1759 1833 1575 1597 1295 1830 1554 1803 1898
2170 2441 2358 1916 2030 1938 1558 1756 1832 1767 1789 1772 1710 1948 1710 1378 1605 1840 1645 1379 1565 1808
2093 2157 2375 2098 2040 2209 2201 2144 2363 2170 2154 1901 1845 1926 2110 1679 1607 1527 1967 1984 1879 2055
2070 2039 1902 2106 1982 2046 2238 2192 2226 2316 2383 1868 1749 1869 1936 1480 1255 1598 1724 1676 1974 1849
1826 1982 1989 2016 2157 2065 2191 2266 1896 1926 2268 2334 1700 2057 1881 1678 1596 1707 1684 1692 1691 1814
1332 1387 1679 2042 2160 2238 2317 2331 2118 1921 1925 2083 2065 1819 1713 1572 1698 1660 1413 1747 1987 1640
2072 1921 1897 1931 2026 2194 2223 2122 2222 2431 1959 1920 1805 1534 1731 1388 1552 1668 1701 1677 1819 1710
1874 1937 2014 1933 1905 2023 1966 1954 2000 1970 2122 2214 1534 784 508 765 1529 1358 1724 1474 1630 1645
2122 2126 2099 2049 1936 2043 1907 1963 2614 2037 1920 1987 2030 935 642 671 1014 1444 1613 1656 1675 1671
876 990 1336 1968 2166 2271 2130 2486 2628 2163 2068 2077 1952 1230 965 682 1339 1615 1511 1593 1830 1616
131 122 211 448 951 1414 2610 2601 2292 1906 2232 2402 2087 1163 1110 768 1561 1888 1217 980 929 573
11 9 10 18 87 586 1306 2090 1864 2281 2489 1743 2578 1136 856 513 1475 997 347 197 182 200
0 0 0 0 12 21 727 1781 1742 1780 1795 2073 1863 908 679 245 1318 392 205 113 125 105